Date String (YYYY-MM-DD hh:mm:ss) UTC,Instrument flags,absolute air pressure of the measurement (hPa),sample flow rate (lpm),inlet stack bypass flow (lpm),air temperature of the measurement (°C),ambient temperature measured by the external sensor (°C),aerosol sample conditioner tube jacket temperature (°C),OPC LED temperature (°C),internal box temperature (°C),relative humidity of the measurement (%),span deviation,mass concentration of particles derived from Lorenz-Mie calculation of OPC scattering (μg/m³),mass concentration of particles derived from Lorenz-Mie calculation of OPC scattering (μg/m³),mass concentration of particles derived from Lorenz-Mie calculation of OPC scattering (μg/m³)
DateTimeUTC,F1_M11,P_M11,Q1_M11,Q2_M11,T1_M11,T2_M11,T3_M11,T4_M11,T5_M11,U1_M11,ZSPAN_M11,X0_M11,X2_M11,X1_M11
2023-08-27 17:00:00,SystemResetWarning,0835.6,5.00,000.00,030.1,025.8,000.0,038.2,030.1,33.2,0001.0,0013.08,0008.70,0008.41
2023-08-27 17:01:00,SystemResetWarning,0835.5,5.00,000.00,030.0,026.1,000.0,038.2,030.2,33.9,0001.5,0012.90,0008.67,0008.38
2023-08-27 17:02:00,SystemResetWarning,0835.6,5.00,000.00,030.0,026.4,000.0,038.2,030.3,34.1,0001.6,0012.24,0008.64,0008.32
2023-08-27 17:03:00,SystemResetWarning,0835.5,4.99,000.00,030.0,026.4,000.0,038.1,030.3,34.5,0001.6,0012.30,0008.61,0008.26
2023-08-27 17:04:00,SystemResetWarning,0835.5,4.99,000.00,030.0,025.1,000.0,038.0,030.1,34.7,0001.5,0012.35,0008.55,0008.19
2023-08-27 17:05:00,SystemResetWarning,0835.5,5.03,000.00,029.9,024.4,000.0,037.8,030.0,35.5,0001.7,0012.27,0008.48,0008.12
2023-08-27 17:06:00,SystemResetWarning,0835.5,4.99,000.00,030.0,024.4,000.0,037.8,030.0,34.7,0001.8,0011.99,0008.42,0008.05
2023-08-27 17:07:00,SystemResetWarning,0835.5,4.98,000.00,030.0,024.8,000.0,037.8,029.9,35.0,0001.6,0011.48,0008.37,0008.00
2023-08-27 17:08:00,SystemResetWarning,0835.5,5.03,000.00,030.1,025.2,000.0,037.9,030.1,35.2,0001.6,0011.25,0008.33,0007.95
2023-08-27 17:09:00,SystemResetWarning,0835.5,5.01,000.00,030.3,025.6,000.0,037.9,030.3,34.8,0001.5,0011.32,0008.30,0007.91
2023-08-27 17:10:00,SystemResetWarning,0835.5,5.00,000.00,030.5,026.0,000.0,038.0,030.4,34.2,0001.6,0011.31,0008.25,0007.84
2023-08-27 17:11:00,SystemResetWarning,0835.5,4.99,000.00,030.6,026.3,000.0,038.0,030.5,34.3,0001.5,0011.27,0008.18,0007.77
2023-08-27 17:12:00,SystemResetWarning,0835.5,4.99,000.00,030.7,026.6,000.0,038.1,030.5,34.0,0001.1,0011.26,0008.13,0007.71
2023-08-27 17:13:00,SystemResetWarning,0835.5,5.00,000.00,030.8,026.1,000.0,038.1,030.4,34.0,0000.7,0011.23,0008.09,0007.67
2023-08-27 17:14:00,SystemResetWarning,0835.5,5.01,000.00,030.7,024.9,000.0,038.0,030.1,34.1,0000.6,0011.24,0008.06,0007.64
2023-08-27 17:15:00,SystemResetWarning,0835.5,5.01,000.00,030.7,024.6,000.0,038.0,030.0,34.3,0000.5,0011.21,0008.05,0007.62
2023-08-27 17:16:00,SystemResetWarning,0835.5,4.98,000.00,030.6,024.8,000.0,038.1,030.0,35.6,0000.5,0011.22,0008.04,0007.60
2023-08-27 17:17:00,SystemResetWarning,0835.4,5.02,000.00,030.6,025.2,000.0,038.1,030.1,35.4,0000.5,0011.21,0008.02,0007.57
2023-08-27 17:18:00,SystemResetWarning,0835.5,4.99,000.00,030.8,025.5,000.0,038.2,030.3,34.8,0000.8,0011.21,0008.02,0007.54
2023-08-27 17:19:00,SystemResetWarning,0835.5,4.99,000.00,030.9,025.9,000.0,038.3,030.4,34.8,0000.8,0011.06,0007.99,0007.54
2023-08-27 17:20:00,SystemResetWarning,0835.5,5.02,000.00,031.0,026.3,000.0,038.3,030.5,34.6,0000.9,0010.95,0007.97,0007.53
2023-08-27 17:21:00,SystemResetWarning,0835.5,4.98,000.00,031.0,026.6,000.0,038.4,030.6,34.5,0000.8,0010.80,0007.94,0007.54
2023-08-27 17:22:00,SystemResetWarning,0835.5,4.99,000.00,031.1,026.1,000.0,038.4,030.5,33.9,0000.7,0010.81,0007.96,0007.57
2023-08-27 17:23:00,SystemResetWarning,0835.5,5.00,000.00,031.1,024.9,000.0,038.3,030.2,33.7,0000.4,0010.77,0007.98,0007.61
2023-08-27 17:24:00,SystemResetWarning,0835.5,5.01,000.00,031.0,024.5,000.0,038.2,030.2,33.7,0000.7,0010.74,0007.97,0007.63
2023-08-27 17:25:00,SystemResetWarning,0835.5,5.01,000.00,030.9,024.7,000.0,038.3,030.1,33.7,0000.4,0010.62,0007.96,0007.63
2023-08-27 17:26:00,SystemResetWarning,0835.5,4.99,000.00,030.7,025.1,000.0,038.4,030.1,34.7,0000.4,0010.47,0007.92,0007.60
2023-08-27 17:27:00,SystemResetWarning,0835.5,5.01,000.00,030.7,025.5,000.0,038.4,030.2,34.9,0000.6,0010.31,0007.85,0007.57
2023-08-27 17:28:00,SystemResetWarning,0835.5,4.99,000.00,030.7,025.9,000.0,038.5,030.3,34.5,0000.6,0010.24,0007.80,0007.54
2023-08-27 17:29:00,SystemResetWarning,0835.5,4.98,000.00,030.7,026.2,000.0,038.5,030.4,34.6,0000.5,0010.17,0007.74,0007.49
2023-08-27 17:30:00,SystemResetWarning,0835.4,5.02,000.00,030.7,026.5,000.0,038.5,030.5,34.9,0000.4,0010.16,0007.70,0007.43
2023-08-27 17:31:00,SystemResetWarning,0835.5,4.98,000.00,030.8,026.1,000.0,038.4,030.5,34.7,0000.1,0010.11,0007.64,0007.37
2023-08-27 17:32:00,SystemResetWarning,0835.3,5.00,000.00,030.8,024.9,000.0,038.3,030.2,34.5,0000.2,0010.15,0007.61,0007.32
2023-08-27 17:33:00,SystemResetWarning,0835.3,5.01,000.00,030.7,024.4,000.0,038.2,030.1,34.9,0000.5,0010.18,0007.57,0007.26
2023-08-27 17:34:00,SystemResetWarning,0835.3,5.00,000.00,030.7,024.6,000.0,038.2,030.1,34.3,0000.8,0010.54,0007.53,0007.21
2023-08-27 17:35:00,SystemResetWarning,0835.2,4.97,000.00,030.6,025.0,000.0,038.3,030.1,35.3,0000.8,0010.92,0007.51,0007.18
2023-08-27 17:36:00,SystemResetWarning,0835.2,5.04,000.00,030.6,025.4,000.0,038.3,030.2,35.7,0000.5,0010.96,0007.52,0007.18
2023-08-27 17:37:00,SystemResetWarning,0835.3,4.98,000.00,030.9,025.8,000.0,038.4,030.5,35.3,0000.4,0011.02,0007.55,0007.20
2023-08-27 17:38:00,SystemResetWarning,0835.3,5.01,000.00,031.2,026.1,000.0,038.4,030.7,34.2,0000.7,0011.11,0007.60,0007.24
2023-08-27 17:39:00,SystemResetWarning,0835.3,4.99,000.00,031.3,026.3,000.0,038.4,030.7,34.0,0001.1,0011.60,0007.65,0007.28
2023-08-27 17:40:00,SystemResetWarning,0835.5,4.98,000.00,031.5,025.5,000.0,038.4,030.5,33.7,0001.0,0011.63,0007.71,0007.35
2023-08-27 17:41:00,SystemResetWarning,0835.3,5.01,000.00,031.5,024.5,000.0,038.3,030.2,33.6,0000.9,0011.70,0007.79,0007.42
2023-08-27 17:42:00,SystemResetWarning,0835.2,5.01,000.00,031.4,024.4,000.0,038.4,030.1,33.5,0001.0,0011.75,0007.84,0007.46
2023-08-27 17:43:00,SystemResetWarning,0835.3,4.99,000.00,031.3,024.7,000.0,038.5,030.1,34.1,0000.6,0011.73,0007.83,0007.47
2023-08-27 17:44:00,SystemResetWarning,0835.2,5.00,000.00,031.1,025.1,000.0,038.6,030.2,34.6,0000.3,0012.05,0007.83,0007.48
2023-08-27 17:45:00,SystemResetWarning,0835.4,5.00,000.00,031.1,025.6,000.0,038.6,030.3,34.4,0000.2,0011.87,0007.85,0007.50
2023-08-27 17:46:00,SystemResetWarning,0835.2,5.00,000.00,031.0,026.0,000.0,038.7,030.4,34.5,-000.0,0011.38,0007.87,0007.52
2023-08-27 17:47:00,SystemResetWarning,0835.3,5.00,000.00,031.0,026.3,000.0,038.7,030.5,34.6,0000.3,0011.48,0007.89,0007.52
2023-08-27 17:48:00,SystemResetWarning,0835.3,4.99,000.00,031.0,026.1,000.0,038.7,030.5,34.5,0000.8,0011.76,0007.88,0007.52
2023-08-27 17:49:00,SystemResetWarning,0835.2,4.97,000.00,031.0,024.9,000.0,038.5,030.3,34.9,0000.7,0011.88,0007.89,0007.52
2023-08-27 17:50:00,SystemResetWarning,0835.3,5.04,000.00,030.9,024.4,000.0,038.4,030.2,35.5,0000.0,0011.67,0007.97,0007.57
2023-08-27 17:51:00,SystemResetWarning,0835.2,5.00,000.00,031.0,024.5,000.0,038.4,030.2,35.1,0000.1,0011.79,0008.08,0007.62
2023-08-27 17:52:00,SystemResetWarning,0835.3,4.98,000.00,031.1,024.9,000.0,038.5,030.3,33.9,0000.3,0011.88,0008.12,0007.65
2023-08-27 17:53:00,SystemResetWarning,0835.2,4.99,000.00,031.1,025.3,000.0,038.5,030.4,33.3,0000.2,0011.91,0008.17,0007.70
2023-08-27 17:54:00,SystemResetWarning,0835.2,5.02,000.00,031.2,025.8,000.0,038.6,030.4,33.3,0000.9,0011.95,0008.22,0007.76
2023-08-27 17:55:00,SystemResetWarning,0835.2,5.00,000.00,031.2,026.1,000.0,038.6,030.5,33.9,0001.2,0011.64,0008.27,0007.80
2023-08-27 17:56:00,SystemResetWarning,0835.2,4.99,000.00,031.2,026.4,000.0,038.7,030.5,33.8,0001.4,0011.61,0008.29,0007.83
2023-08-27 17:57:00,SystemResetWarning,0835.2,4.99,000.00,031.2,025.5,000.0,038.6,030.4,33.9,0001.3,0011.51,0008.28,0007.84
2023-08-27 17:58:00,SystemResetWarning,0835.2,5.00,000.00,031.1,024.6,000.0,038.5,030.2,33.2,0001.2,0011.42,0008.26,0007.84
2023-08-27 17:59:00,SystemResetWarning,0835.2,5.00,000.00,031.1,024.5,000.0,038.4,030.1,32.7,0001.3,0011.16,0008.27,0007.85
